Regional Weather Roundup
Issued by NWS Little Rock, AR

Home | Current Version | Previous Version | Text Only | Print | Product List | Glossary Off
Versions: 1 2 3 4 5 6 7 8 9 10 11 12 13 14 15 16 17 18 19 20 21 22 23 24 25 26 27

000
ASUS44 KLZK 010205
RWRLZK

WEATHER ROUNDUP FOR ARKANSAS
NATIONAL WEATHER SERVICE LITTLE ROCK AR
900 PM CDT WED AUG 31 2016

NOTE: "FAIR" INDICATES FEW OR NO CLOUDS BELOW 12,000 FEET WITH NO
SIGNIFICANT WEATHER AND/OR OBSTRUCTIONS TO VISIBILITY.

ARZ001-003-010-029-010300-
NORTHWEST ARKANSAS

CITY           SKY/WX    TMP DP  RH WIND       PRES   REMARKS
FAYETTEVILLE   PTCLDY    74  72  93 CALM      30.04R
FORT SMITH     CLOUDY    81  68  64 NE5       29.98R
HARRISON       PTCLDY    75  71  87 CALM      30.06R
BENTONVILLE    CLOUDY    77  66  69 NE12      30.06R
ROGERS         CLOUDY    76  70  82 NE9       30.07R
SILOAM SPGS    CLOUDY    75  63  64 N6        30.03R
HIGHFILL       CLOUDY    78  71  79 NE8       30.05R
SPRINGDALE     CLOUDY    79  73  83 NE7       30.06R
$$

ARZ004-005-016-010300-
NORTH CENTRAL ARKANSAS

CITY           SKY/WX    TMP DP  RH WIND       PRES   REMARKS
BATESVILLE     CLOUDY    73  72  94 NW3       30.00R
FLIPPIN        MOCLDY    77  68  73 CALM      30.01R
MTN HOME       PTCLDY    75  71  87 CALM      30.03R
$$

ARZ040-041-010300-
WEST CENTRAL ARKANSAS

CITY           SKY/WX    TMP DP  RH WIND       PRES   REMARKS
MENA           CLEAR     79  77  94 CALM      30.00R
MOUNT IDA      PTCLDY    79  76  90 CALM      29.97R
$$

ARZ009-017-025-026-028-010300-
NORTHEAST ARKANSAS

CITY           SKY/WX    TMP DP  RH WIND       PRES   REMARKS
JONESBORO      CLEAR     81  73  76 N5        29.96R HX  86
NEWPORT        CLOUDY    78  74  87 N6        29.97R
WALNUT RIDGE   CLEAR     79  72  78 N6        29.98R
BLYTHEVILLE    PTCLDY    77  74  90 N6        29.96R
$$

ARZ022-023-033-042-044-010300-
CENTRAL ARKANSAS

CITY           SKY/WX    TMP DP  RH WIND       PRES   REMARKS
LITTLE ROCK    CLOUDY    85  74  69 N7        29.95R HX  92
N LITTLE ROCK    N/A     80  72  75 N6        29.94R
SEARCY         MOCLDY    78  72  81 NE3       29.98R
HOT SPRINGS    CLEAR     82  70  66 NE8       29.97R HX  86
RUSSELLVILLE   CLOUDY    81  72  74 CALM      29.97R HX  85
$$

ARZ036-010300-
EAST ARKANSAS

CITY           SKY/WX    TMP DP  RH WIND       PRES   REMARKS
WEST MEMPHIS   PTCLDY    82  74  76 N6        29.94R HX  88
$$

ARZ050-053-066-070-073-010300-
SOUTHWEST ARKANSAS

CITY           SKY/WX    TMP DP  RH WIND       PRES   REMARKS
ARKADELPHIA    FAIR      79  77  94 N3        29.95R
TEXARKANA      CLEAR     79  74  84 CALM      29.94R
EL DORADO      CLEAR     80  75  84 N6        29.93R HX  85
DE QUEEN       PTCLDY    78  77  96 CALM      29.93R
$$

ARZ056-057-069-010300-
SOUTHEAST ARKANSAS

CITY           SKY/WX    TMP DP  RH WIND       PRES   REMARKS
PINE BLUFF     CLEAR     81  75  82 N6        29.94R HX  87
STUTTGART      CLEAR     81  73  78 N8        29.95R HX  85
MONTICELLO     CLEAR     83  75  77 CALM      29.93R HX  90

$$






USA.gov is the U.S. government's official web portal to all federal, state and local government web resources and services.